Regional Weather Roundup
Issued by NWS State College, PA

Home | Current Version | Previous Version | Graphics & Text | Print | Product List | Glossary On
Versions: 1 2 3 4 5 6 7 8 9 10 11 12 13 14 15 16 17 18 19 20 21 22 23 24 25 26 27 28 29 30 31 32 33 34 35 36 37 38 39 40 41 42 43 44 45 46 47 48 49 50
000
ASUS41 KCTP 301310
RWRCTP

REGIONAL WEATHER ROUNDUP
NATIONAL WEATHER SERVICE STATE COLLEGE PA
900 AM EDT THU JUL 30 2015

Note: "fair" indicates few or no clouds below 12,000 feet with no
significant weather and/or obstructions to visibility.

* = STATION THAT DOES NOT REPORT PRECIPITATION /E.G. RAIN...SNOW...ETC/
    THUNDER OR FOG.

PAZ002>004-007>009-013>016-020>023-029>032-301400-
WESTERN PENNSYLVANIA

CITY           SKY/WX    TMP DP  RH WIND       PRES   REMARKS
ERIE           MOSUNNY   76  63  64 W8        29.93R
MEADVILLE      LGT RAIN  72  62  71 W6        29.97S
FRANKLIN*      PTSUNNY   72  63  73 W8        29.99R
NEW CASTLE     FAIR      77  65  66 VRB6      29.98S
BEAVER COUNTY  SUNNY     75  63  64 NW7       29.98
BUTLER*        SUNNY     75  63  64 NW3       29.99S
PITTSBURGH INT MOSUNNY   77  59  53 NW9       29.98R
PITTSBURGH     MOSUNNY   76  57  51 NW7       29.97R
INDIANA*       PTSUNNY   73  70  88 VRB5      30.01R
LATROBE        CLOUDY    73  66  78 VRB3      29.99R
WASHINGTON CO* NOT AVBL
$$

PAZ004>006-010>012-017>019-024>028-033>037-041-042-045-046-049>053-301400-
CENTRAL PENNSYLVANIA

CITY           SKY/WX    TMP DP  RH WIND       PRES   REMARKS
BRADFORD       MOSUNNY   70  64  81 W8        29.97S
DUBOIS         PTSUNNY   73  64  73 W7        29.96S
CLEARFIELD     PTSUNNY   75  66  73 NW6       29.95S
JOHNSTOWN      CLOUDY    70  67  90 NW9       30.01R FOG
ALTOONA        HVY RAIN  74  71  91 W6        29.98R VSB 1/2
STATE COLLEGE  HVY RAIN  72  70  94 CALM      29.95R VSB 1
WILLIAMSPORT   PTSUNNY   76  71  85 SW7       29.88R
SELINSGROVE    CLOUDY    80  74  81 VRB3      29.89S
FT INDIANTOWN  CLOUDY    77  73  87 SW6       29.91S
CAPITAL CITY   PTSUNNY   80  72  76 SW8       29.90S
HARRISBURG     PTSUNNY   80  72  76 SW3       29.89F
YORK           MOSUNNY   80  74  81 SW3       29.91S
$$

PAZ038>040-043-044-047-048-054-055-060>062-067>071-301400-
EASTERN PENNSYLVANIA

CITY           SKY/WX    TMP DP  RH WIND       PRES   REMARKS
SCRANTON       CLOUDY    79  72  79 SW9       29.90S
MOUNT POCONO     N/A    N/A N/A N/A MISG      29.96F
ALLENTOWN      CLOUDY    80  73  79 SW7       29.90F
QUAKERTOWN*    CLOUDY    77  75  94 SW7       29.92F
READING        CLOUDY    80  73  79 SW7       29.89F
LANCASTER      CLOUDY    79  73  82 S7        29.91S
COATESVILLE    CLOUDY    77  75  94 CALM      29.94S
POTTSTOWN      CLOUDY    79  75  87 S5        29.92F
BLUE BELL      CLOUDY    81  75  83 SW5       29.92S
DOYLESTOWN     CLOUDY    76  74  93 S3        29.92S
WILLOW GROVE   NOT AVBL
NORTH PHILA    MOSUNNY   82  71  69 SW10      29.93S
PHILADELPHIA   PTSUNNY   82  73  74 SW10      29.92S
$$


USA.gov is the U.S. government's official web portal to all federal, state and local government web resources and services.